Location: Unspecified
(17.6330°N, 0.0000°E)
Time: 06:29:58
(UTC+00:00)

S-56A Canister/Altair - Visible Passes

Search period start: 13 August 2020 00:00
Search period end: 23 August 2020 00:00
Orbit: 633 x 2499 km, 38.9° (Epoch: 12 August)

Date Brightness Start Highest point End Pass type
(mag) Time Alt. Az. Time Alt. Az. Time Alt. Az.
13 Aug 9.7 02:44:37 21° ENE 02:44:37 21° ENE 02:46:40 10° ENE visible
13 Aug 9.1 04:42:03 15° WNW 04:45:38 29° NNW 04:51:45 10° NE visible
14 Aug 8.6 04:11:14 27° WNW 04:12:48 32° NNW 04:18:36 10° NE visible
15 Aug 8.5 03:40:23 36° NNW 03:40:23 36° NNW 03:45:34 10° NE visible
16 Aug 9.2 03:09:31 28° NNE 03:09:31 28° NNE 03:12:38 10° NE visible
16 Aug 9.9 05:09:50 10° NW 05:13:03 15° N 05:16:50 10° NNE visible
17 Aug 10.1 02:38:37 16° NE 02:38:37 16° NE 02:39:48 10° NE visible
17 Aug 9.8 04:37:06 10° NW 04:40:02 14° N 04:43:26 10° NNE visible
18 Aug 9.6 04:05:09 12° NW 04:07:05 15° NNW 04:10:17 10° NNE visible
19 Aug 9.6 03:34:14 15° NNW 03:34:14 15° NNW 03:37:22 10° NNE visible
20 Aug 10.0 03:03:19 14° N 03:03:19 14° N 03:04:36 10° NNE visible
